Location: Praha
(50.0830°N, 14.4670°E)
Time: 00:38:30
(UTC+01:00)

ISS - Pass Details

Date: 23 November 2020
Orbit: 418 x 420 km, 51.6° (Epoch: 05 December)

Event Time Altitude Azimuth Distance (km) Brightness Sun altitude
Rises 17:18:53 0° 214° (SSW) 2,351 1.0 -11.0°
Reaches altitude 10° 17:21:12 10° 200° (SSW) 1,491 -0.4 -11.4°
Maximum altitude 17:23:58 24° 144° (SE) 911 -2.2 -11.8°
Enters shadow 17:25:38 17° 103° (ESE) 1,159 -2.0 -12.0°
